POLAR

Last updated on Sat Apr 13 2024 01:03:19 GMT+0100 (British Summer Time)

1 23802U 96013A 24103.43394116 .00000203 00000+0 00000+0 0 9998 2 23802 79.0826 235.2762 5845467 236.0097 54.3735 1.29846884134524
UTC large
Height (km)
Speed (km/s)
/
Latitude / Longitude
Inclination (degrees)
Orbital Period (minutes)
Azimuth
Elevation
Range (km)
Doppler Factor

Next 0 passes for location: London (51.5072 / 0.1276)

Sorry there are no passes over London.